Check out our new BloomSky Weather System.

Active alerts


No alerts


Thunder radar  blitzortung!


Rain radar more information rain snow radar


Visit our other weather sites:

Template documentation
and downloads

And another site



Weather Underground History page Text

Daily Summary for September 13, 2017 Units:  English    Metric   Both
« Previous Day
Next Day »
Daily Weekly Monthly Yearly Custom
  High: Low: Average:
Temperature: TemperatureF °F 66.9 °F 77.2 °F
Dew Point: DewpointF °F 63.5 °F 67 °F
Humidity: Humidity % 48 % 72 %
Wind Speed: WindSpeedMPH mph 0.0 mph 0.8 mph
Wind Gust: WindSpeedGustMPH mph - -
Wind:- - SSW
Pressure: PressureIn in 29.76 in -
Precipitation: 0.00 in    
Historical Graphs
 
 
Tabular Data for September 13, 2017
Time Temperature Dew Point Pressure Wind Wind Speed Wind Gust Humidity Rainfall Rate (Hourly)
TemperatureF °F DewpointF °F PressureIn in Calm     Humidity % HourlyPrecipIn in
00:01 71.8 °F 63.9 °F 29.79 in South 1.0 mph 2.0 mph 76 % 0.00 in
00:06 72.0 °F 63.7 °F 29.79 in Calm   2.0 mph 75 % 0.00 in
00:11 72.0 °F 63.7 °F 29.79 in Calm   2.0 mph 75 % 0.00 in
00:16 71.8 °F 63.9 °F 29.79 in Calm   2.0 mph 76 % 0.00 in
00:21 71.4 °F 63.9 °F 29.79 in Calm   2.0 mph 77 % 0.00 in
00:26 71.4 °F 63.9 °F 29.79 in Calm     77 % 0.00 in
00:31 71.2 °F 64.0 °F 29.79 in Calm     78 % 0.00 in
00:36 71.2 °F 64.0 °F 29.79 in Calm     78 % 0.00 in
00:41 71.1 °F 63.9 °F 29.79 in Calm     78 % 0.00 in
00:46 71.1 °F 64.2 °F 29.79 in Calm     79 % 0.00 in
00:51 70.9 °F 64.0 °F 29.79 in Calm     79 % 0.00 in
00:56 70.7 °F 63.9 °F 29.79 in Calm     79 % 0.00 in
01:01 70.3 °F 63.9 °F 29.79 in Calm     80 % 0.00 in
01:06 70.2 °F 64.0 °F 29.78 in Calm     81 % 0.00 in
01:11 70.2 °F 64.0 °F 29.78 in Calm     81 % 0.00 in
01:16 70.0 °F 64.2 °F 29.78 in Calm     82 % 0.00 in
01:21 69.6 °F 63.9 °F 29.78 in Calm     82 % 0.00 in
01:26 69.3 °F 63.9 °F 29.78 in Calm     83 % 0.00 in
01:31 69.3 °F 64.2 °F 29.78 in Calm     84 % 0.00 in
01:36 68.9 °F 63.5 °F 29.78 in Calm     83 % 0.00 in
01:41 68.7 °F 64.0 °F 29.78 in Calm     85 % 0.00 in
01:46 68.5 °F 63.9 °F 29.78 in Calm     85 % 0.00 in
01:51 68.4 °F 63.7 °F 29.78 in Calm     85 % 0.00 in
01:56 68.2 °F 63.5 °F 29.78 in Calm     85 % 0.00 in
02:01 67.8 °F 63.5 °F 29.78 in Calm     86 % 0.00 in
02:06 67.8 °F 63.9 °F 29.78 in Calm     87 % 0.00 in
02:11 67.8 °F 63.9 °F 29.78 in Calm     87 % 0.00 in
02:16 67.6 °F 63.7 °F 29.78 in Calm     87 % 0.00 in
02:21 67.5 °F 63.5 °F 29.78 in Calm     87 % 0.00 in
02:26 67.6 °F 64.2 °F 29.78 in Calm     89 % 0.00 in
02:32 68.0 °F 64.4 °F 29.78 in Calm     88 % 0.00 in
02:34 68.0 °F 64.4 °F 29.78 in Calm     88 % 0.00 in
02:39 68.2 °F 64.4 °F 29.78 in Calm     88 % 0.00 in
02:44 68.2 °F 64.4 °F 29.78 in Calm     88 % 0.00 in
02:49 68.2 °F 64.4 °F 29.78 in Calm     88 % 0.00 in
02:54 68.2 °F 64.8 °F 29.78 in Calm     89 % 0.00 in
02:59 68.4 °F 64.9 °F 29.78 in Calm     89 % 0.00 in
03:04 68.4 °F 64.6 °F 29.78 in Calm     88 % 0.00 in
03:09 68.4 °F 64.9 °F 29.79 in Calm     89 % 0.00 in
03:14 68.5 °F 64.8 °F 29.79 in Calm     88 % 0.00 in
03:19 68.7 °F 64.9 °F 29.79 in Calm     88 % 0.00 in
03:24 68.7 °F 64.9 °F 29.79 in Calm     88 % 0.00 in
03:29 68.7 °F 64.9 °F 29.79 in Calm     88 % 0.00 in
03:34 68.7 °F 64.9 °F 29.79 in Calm     88 % 0.00 in
03:39 68.5 °F 64.8 °F 29.79 in Calm     88 % 0.00 in
03:44 68.4 °F 64.6 °F 29.79 in Calm     88 % 0.00 in
03:49 68.4 °F 64.6 °F 29.80 in Calm     88 % 0.00 in
03:54 68.2 °F 64.8 °F 29.80 in Calm     89 % 0.00 in
03:59 67.8 °F 64.4 °F 29.80 in Calm     89 % 0.00 in
04:04 67.8 °F 64.4 °F 29.80 in Calm     89 % 0.00 in
04:09 67.6 °F 64.6 °F 29.80 in Calm     90 % 0.00 in
04:14 67.5 °F 64.4 °F 29.80 in Calm     90 % 0.00 in
04:19 67.5 °F 64.4 °F 29.80 in Calm     90 % 0.00 in
04:24 67.5 °F 64.8 °F 29.80 in Calm     91 % 0.00 in
04:29 67.3 °F 64.2 °F 29.80 in Calm     90 % 0.00 in
04:34 67.1 °F 64.4 °F 29.80 in Calm     91 % 0.00 in
04:39 66.9 °F 64.2 °F 29.80 in Calm     91 % 0.00 in
05:00 67.3 °F 64.9 °F 29.80 in Calm   1.0 mph 92 % 0.00 in
05:05 67.5 °F 65.1 °F 29.80 in Calm   1.0 mph 92 % 0.00 in
05:10 67.6 °F 64.9 °F 29.80 in Calm     91 % 0.00 in
05:15 67.8 °F 65.1 °F 29.80 in Calm   1.0 mph 91 % 0.00 in
05:20 68.0 °F 64.9 °F 29.80 in Calm   1.0 mph 90 % 0.00 in
05:25 68.2 °F 64.8 °F 29.80 in South 1.0 mph 2.0 mph 89 % 0.00 in
05:30 68.4 °F 64.9 °F 29.80 in Calm   2.0 mph 89 % 0.00 in
05:35 68.5 °F 64.8 °F 29.80 in Calm   2.0 mph 88 % 0.00 in
05:40 68.5 °F 64.8 °F 29.80 in South 1.0 mph 2.0 mph 88 % 0.00 in
05:45 68.7 °F 64.8 °F 29.80 in Calm   2.0 mph 87 % 0.00 in
05:50 68.7 °F 64.8 °F 29.80 in South 2.0 mph 2.0 mph 87 % 0.00 in
05:55 68.9 °F 64.9 °F 29.80 in SSW 1.0 mph 4.0 mph 87 % 0.00 in
06:00 68.9 °F 64.9 °F 29.80 in Calm   4.0 mph 87 % 0.00 in
06:05 68.9 °F 64.6 °F 29.81 in SSW 2.0 mph 4.0 mph 86 % 0.00 in
06:10 68.9 °F 64.6 °F 29.81 in Calm   3.0 mph 86 % 0.00 in
06:20 68.9 °F 64.6 °F 29.81 in Calm   3.0 mph 86 % 0.00 in
06:25 68.9 °F 64.6 °F 29.81 in Calm   2.0 mph 86 % 0.00 in
06:30 68.7 °F 64.4 °F 29.81 in Calm   2.0 mph 86 % 0.00 in
06:35 68.7 °F 64.4 °F 29.81 in Calm   1.0 mph 86 % 0.00 in
06:40 68.7 °F 64.4 °F 29.81 in Calm   1.0 mph 86 % 0.00 in
06:45 68.5 °F 64.2 °F 29.81 in Calm   1.0 mph 86 % 0.00 in
06:51 68.5 °F 64.2 °F 29.81 in Calm   1.0 mph 86 % 0.00 in
06:56 68.5 °F 64.2 °F 29.81 in Calm   1.0 mph 86 % 0.00 in
07:01 68.7 °F 64.4 °F 29.82 in NNW 1.0 mph 2.0 mph 86 % 0.00 in
07:02 68.7 °F 64.4 °F 29.82 in Calm   2.0 mph 86 % 0.00 in
07:07 68.7 °F 64.4 °F 29.82 in Calm   2.0 mph 86 % 0.00 in
07:12 68.7 °F 64.4 °F 29.82 in Calm   2.0 mph 86 % 0.00 in
07:17 68.7 °F 64.4 °F 29.82 in Calm   1.0 mph 86 % 0.00 in
07:22 68.7 °F 64.4 °F 29.82 in Calm   1.0 mph 86 % 0.00 in
07:27 68.7 °F 64.4 °F 29.82 in Calm   1.0 mph 86 % 0.00 in
07:32 68.7 °F 64.4 °F 29.83 in Calm   1.0 mph 86 % 0.00 in
07:37 68.9 °F 64.6 °F 29.83 in Calm   1.0 mph 86 % 0.00 in
07:42 69.1 °F 64.8 °F 29.83 in Calm   1.0 mph 86 % 0.00 in
07:47 69.3 °F 64.9 °F 29.83 in Calm   1.0 mph 86 % 0.00 in
07:52 69.4 °F 65.1 °F 29.83 in Calm   1.0 mph 86 % 0.00 in
07:57 69.8 °F 65.1 °F 29.83 in SE 1.0 mph 1.0 mph 85 % 0.00 in
08:03 70.2 °F 65.5 °F 29.83 in South 1.0 mph 1.0 mph 85 % 0.00 in
08:08 70.5 °F 65.8 °F 29.83 in Calm   1.0 mph 85 % 0.00 in
08:13 70.9 °F 65.8 °F 29.84 in Calm   1.0 mph 84 % 0.00 in
08:18 71.2 °F 65.8 °F 29.84 in Calm   1.0 mph 83 % 0.00 in
08:23 71.6 °F 65.8 °F 29.84 in Calm   1.0 mph 82 % 0.00 in
08:28 72.1 °F 66.0 °F 29.84 in Calm   2.0 mph 81 % 0.00 in
08:33 72.7 °F 66.9 °F 29.84 in Calm   3.0 mph 82 % 0.00 in
08:38 73.2 °F 66.7 °F 29.84 in Calm   3.0 mph 80 % 0.00 in
08:43 73.9 °F 67.1 °F 29.85 in Calm   3.0 mph 79 % 0.00 in
08:48 74.5 °F 66.4 °F 29.84 in Calm   3.0 mph 76 % 0.00 in
08:53 74.8 °F 66.4 °F 29.85 in Calm   4.0 mph 75 % 0.00 in
08:58 75.6 °F 67.1 °F 29.85 in West 2.0 mph 5.0 mph 75 % 0.00 in
09:03 75.9 °F 66.6 °F 29.85 in Calm   5.0 mph 73 % 0.00 in
09:08 76.3 °F 66.6 °F 29.85 in Calm   5.0 mph 72 % 0.00 in
09:13 76.5 °F 66.4 °F 29.85 in WNW 3.0 mph 5.0 mph 71 % 0.00 in
09:18 76.6 °F 66.2 °F 29.85 in Calm   5.0 mph 70 % 0.00 in
09:23 76.5 °F 66.0 °F 29.85 in Calm   5.0 mph 70 % 0.00 in
09:28 76.3 °F 66.2 °F 29.85 in Calm   5.0 mph 71 % 0.00 in
09:33 76.5 °F 66.4 °F 29.85 in SW 1.0 mph 6.0 mph 71 % 0.00 in
09:38 76.6 °F 66.6 °F 29.85 in SSW 1.0 mph 6.0 mph 71 % 0.00 in
09:43 76.8 °F 67.1 °F 29.85 in West 1.0 mph 6.0 mph 72 % 0.00 in
09:48 77.5 °F 67.5 °F 29.85 in West 5.0 mph 5.0 mph 71 % 0.00 in
09:53 78.4 °F 67.5 °F 29.85 in West 2.0 mph 7.0 mph 69 % 0.00 in
09:58 79.3 °F 68.4 °F 29.86 in SW 3.0 mph 9.0 mph 69 % 0.00 in
10:03 80.2 °F 66.9 °F 29.86 in WNW 10.0 mph 10.0 mph 64 % 0.00 in
10:08 80.4 °F 67.6 °F 29.86 in SSW 1.0 mph 10.0 mph 65 % 0.00 in
10:13 81.0 °F 67.6 °F 29.86 in SSE 1.0 mph 10.0 mph 64 % 0.00 in
10:18 81.0 °F 67.1 °F 29.86 in WSW 2.0 mph 10.0 mph 63 % 0.00 in
10:23 81.1 °F 68.2 °F 29.86 in SE 2.0 mph 9.0 mph 65 % 0.00 in
10:28 81.7 °F 67.5 °F 29.86 in SSW 1.0 mph 9.0 mph 62 % 0.00 in
10:33 82.4 °F 68.0 °F 29.86 in SSW 3.0 mph 9.0 mph 62 % 0.00 in
10:38 82.9 °F 67.6 °F 29.86 in WSW 3.0 mph 7.0 mph 60 % 0.00 in
10:43 83.1 °F 68.4 °F 29.86 in SW 2.0 mph 8.0 mph 61 % 0.00 in
10:48 82.9 °F 68.2 °F 29.86 in East 1.0 mph 10.0 mph 61 % 0.00 in
10:53 82.6 °F 67.3 °F 29.86 in South 2.0 mph 10.0 mph 60 % 0.00 in
10:58 82.8 °F 68.9 °F 29.86 in WSW 1.0 mph 10.0 mph 63 % 0.00 in
11:03 82.9 °F 68.5 °F 29.86 in NW 4.0 mph 9.0 mph 62 % 0.00 in
11:08 82.9 °F 68.5 °F 29.86 in NW 1.0 mph 8.0 mph 62 % 0.00 in
11:13 82.9 °F 68.2 °F 29.86 in SSE 1.0 mph 10.0 mph 61 % 0.00 in
11:18 82.8 °F 68.4 °F 29.86 in SW 3.0 mph 10.0 mph 62 % 0.00 in
11:23 82.6 °F 68.2 °F 29.86 in SW 2.0 mph 10.0 mph 62 % 0.00 in
11:28 82.6 °F 68.2 °F 29.86 in SSW 2.0 mph 10.0 mph 62 % 0.00 in
11:33 82.6 °F 68.7 °F 29.86 in SW 3.0 mph 10.0 mph 63 % 0.00 in
11:38 82.9 °F 69.1 °F 29.86 in Calm   10.0 mph 63 % 0.00 in
11:43 83.1 °F 67.8 °F 29.85 in WSW 2.0 mph 9.0 mph 60 % 0.00 in
11:48 83.3 °F 69.4 °F 29.85 in SW 1.0 mph 5.0 mph 63 % 0.00 in
11:53 83.1 °F 67.3 °F 29.85 in NE 2.0 mph 7.0 mph 59 % 0.00 in
11:59 82.9 °F 68.2 °F 29.85 in South 4.0 mph 7.0 mph 61 % 0.00 in
12:04 83.3 °F 68.0 °F 29.85 in SSW 3.0 mph 7.0 mph 60 % 0.00 in
12:09 83.5 °F 68.5 °F 29.85 in SW 2.0 mph 7.0 mph 61 % 0.00 in
12:14 83.7 °F 69.3 °F 29.85 in SSE 5.0 mph 6.0 mph 62 % 0.00 in
12:19 83.7 °F 69.3 °F 29.84 in SSW 2.0 mph 6.0 mph 62 % 0.00 in
12:24 83.7 °F 69.3 °F 29.84 in South 1.0 mph 6.0 mph 62 % 0.00 in
12:29 83.7 °F 68.7 °F 29.84 in SSW 4.0 mph 6.0 mph 61 % 0.00 in
12:34 83.7 °F 68.4 °F 29.84 in WSW 1.0 mph 6.0 mph 60 % 0.00 in
12:39 83.7 °F 69.3 °F 29.84 in SSE 1.0 mph 6.0 mph 62 % 0.00 in
12:44 83.8 °F 68.9 °F 29.83 in SW 2.0 mph 6.0 mph 61 % 0.00 in
12:49 83.7 °F 69.3 °F 29.83 in Calm   8.0 mph 62 % 0.00 in
12:54 83.8 °F 69.4 °F 29.83 in SSW 1.0 mph 8.0 mph 62 % 0.00 in
12:59 84.0 °F 69.6 °F 29.83 in SSE 2.0 mph 8.0 mph 62 % 0.00 in
13:04 84.0 °F 70.0 °F 29.83 in South 2.0 mph 5.0 mph 63 % 0.00 in
13:09 84.4 °F 69.4 °F 29.83 in SE 4.0 mph 5.0 mph 61 % 0.00 in
13:14 84.4 °F 70.0 °F 29.83 in SSE 2.0 mph 5.0 mph 62 % 0.00 in
13:19 84.6 °F 69.6 °F 29.83 in SW 3.0 mph 5.0 mph 61 % 0.00 in
13:24 84.6 °F 68.2 °F 29.83 in SW 3.0 mph 6.0 mph 58 % 0.00 in
13:29 84.6 °F 69.1 °F 29.83 in WSW 2.0 mph 6.0 mph 60 % 0.00 in
13:34 84.7 °F 69.3 °F 29.83 in West 2.0 mph 6.0 mph 60 % 0.00 in
13:39 84.7 °F 67.8 °F 29.82 in South 2.0 mph 4.0 mph 57 % 0.00 in
13:44 84.7 °F 69.3 °F 29.82 in Calm   7.0 mph 60 % 0.00 in
13:49 84.9 °F 68.5 °F 29.82 in ENE 3.0 mph 8.0 mph 58 % 0.00 in
13:54 84.9 °F 70.0 °F 29.82 in Calm   8.0 mph 61 % 0.00 in
13:59 85.5 °F 70.0 °F 29.81 in Calm   8.0 mph 60 % 0.00 in
14:04 85.6 °F 68.7 °F 29.81 in WNW 2.0 mph 5.0 mph 57 % 0.00 in
14:09 85.6 °F 69.1 °F 29.81 in SSW 3.0 mph 5.0 mph 58 % 0.00 in
14:14 85.8 °F 69.8 °F 29.81 in South 6.0 mph 6.0 mph 59 % 0.00 in
14:19 85.8 °F 69.8 °F 29.81 in SSW 1.0 mph 7.0 mph 59 % 0.00 in
14:24 86.2 °F 69.6 °F 29.80 in SSW 3.0 mph 7.0 mph 58 % 0.00 in
14:29 86.2 °F 69.1 °F 29.80 in SW 1.0 mph 7.0 mph 57 % 0.00 in
14:34 86.4 °F 70.3 °F 29.80 in SW 5.0 mph 5.0 mph 59 % 0.00 in
14:39 86.5 °F 69.4 °F 29.80 in SSW 2.0 mph 5.0 mph 57 % 0.00 in
14:44 86.4 °F 69.8 °F 29.80 in Calm   5.0 mph 58 % 0.00 in
14:49 86.4 °F 69.8 °F 29.79 in WSW 3.0 mph 5.0 mph 58 % 0.00 in
14:54 86.5 °F 70.0 °F 29.79 in SW 1.0 mph 5.0 mph 58 % 0.00 in
14:59 86.5 °F 68.9 °F 29.79 in SSW 2.0 mph 5.0 mph 56 % 0.00 in
15:04 86.7 °F 69.6 °F 29.79 in Calm   5.0 mph 57 % 0.00 in
15:09 87.1 °F 68.9 °F 29.79 in Calm   5.0 mph 55 % 0.00 in
15:14 87.4 °F 69.8 °F 29.79 in SE 2.0 mph 5.0 mph 56 % 0.00 in
15:19 87.6 °F 66.7 °F 29.79 in South 1.0 mph 4.0 mph 50 % 0.00 in
15:24 87.8 °F 69.6 °F 29.78 in South 2.0 mph 4.0 mph 55 % 0.00 in
15:29 87.8 °F 66.9 °F 29.78 in North 2.0 mph 4.0 mph 50 % 0.00 in
15:34 87.3 °F 67.5 °F 29.78 in Calm   4.0 mph 52 % 0.00 in
15:39 87.4 °F 68.2 °F 29.78 in Calm   6.0 mph 53 % 0.00 in
15:44 87.6 °F 67.8 °F 29.78 in WSW 1.0 mph 6.0 mph 52 % 0.00 in
15:50 87.8 °F 69.1 °F 29.78 in Calm   6.0 mph 54 % 0.00 in
15:55 88.0 °F 68.7 °F 29.78 in South 1.0 mph 5.0 mph 53 % 0.00 in
16:00 87.8 °F 69.1 °F 29.78 in ESE 2.0 mph 5.0 mph 54 % 0.00 in
16:06 87.4 °F 68.7 °F 29.78 in SSE 1.0 mph 6.0 mph 54 % 0.00 in
16:11 87.3 °F 68.5 °F 29.77 in South 1.0 mph 6.0 mph 54 % 0.00 in
16:16 87.4 °F 67.6 °F 29.78 in WNW 1.0 mph 6.0 mph 52 % 0.00 in
16:21 87.4 °F 69.3 °F 29.77 in SSE 1.0 mph 3.0 mph 55 % 0.00 in
16:26 87.6 °F 68.4 °F 29.77 in SSW 1.0 mph 2.0 mph 53 % 0.00 in
16:31 88.0 °F 68.7 °F 29.77 in Calm   2.0 mph 53 % 0.00 in
16:36 88.3 °F 68.5 °F 29.77 in Calm   2.0 mph 52 % 0.00 in
16:41 88.3 °F 69.1 °F 29.77 in SSW 1.0 mph 2.0 mph 53 % 0.00 in
16:46 88.5 °F 68.7 °F 29.77 in South 2.0 mph 4.0 mph 52 % 0.00 in
16:51 88.2 °F 67.1 °F 29.76 in SSE 2.0 mph 4.0 mph 50 % 0.00 in
16:56 88.0 °F 67.6 °F 29.76 in SSE 1.0 mph 4.0 mph 51 % 0.00 in
17:01 88.0 °F 65.8 °F 29.76 in West 2.0 mph 4.0 mph 48 % 0.00 in
17:06 88.3 °F 66.7 °F 29.76 in SSW 2.0 mph 4.0 mph 49 % 0.00 in
17:11 88.3 °F 66.7 °F 29.76 in Calm   3.0 mph 49 % 0.00 in
17:16 88.5 °F 68.0 °F 29.76 in SSE 2.0 mph 3.0 mph 51 % 0.00 in
17:21 88.3 °F 68.5 °F 29.76 in SSE 1.0 mph 4.0 mph 52 % 0.00 in
17:26 88.2 °F 68.4 °F 29.76 in Calm   4.0 mph 52 % 0.00 in
17:31 88.3 °F 68.5 °F 29.76 in South 2.0 mph 4.0 mph 52 % 0.00 in
17:36 88.3 °F 68.0 °F 29.76 in Calm   2.0 mph 51 % 0.00 in
17:41 88.2 °F 67.8 °F 29.76 in SSE 1.0 mph 3.0 mph 51 % 0.00 in
17:46 88.0 °F 68.2 °F 29.76 in Calm   3.0 mph 52 % 0.00 in
17:51 88.0 °F 66.9 °F 29.76 in Calm   3.0 mph 50 % 0.00 in
17:56 88.0 °F 67.6 °F 29.76 in South 1.0 mph 3.0 mph 51 % 0.00 in
18:01 87.6 °F 66.7 °F 29.76 in Calm   2.0 mph 50 % 0.00 in
18:06 87.6 °F 65.5 °F 29.76 in South 1.0 mph 2.0 mph 48 % 0.00 in
18:11 87.4 °F 66.6 °F 29.76 in South 1.0 mph 3.0 mph 50 % 0.00 in
18:16 87.1 °F 67.3 °F 29.76 in SSE 1.0 mph 3.0 mph 52 % 0.00 in
18:21 86.7 °F 68.0 °F 29.76 in SSE 1.0 mph 3.0 mph 54 % 0.00 in
18:26 86.5 °F 68.4 °F 29.76 in SSE 1.0 mph 3.0 mph 55 % 0.00 in
18:31 86.4 °F 68.4 °F 29.76 in Calm   2.0 mph 55 % 0.00 in
18:36 86.2 °F 68.2 °F 29.76 in South 1.0 mph 3.0 mph 55 % 0.00 in
18:41 85.8 °F 68.9 °F 29.76 in SSE 1.0 mph 3.0 mph 57 % 0.00 in
18:46 85.5 °F 68.5 °F 29.76 in SSW 1.0 mph 4.0 mph 57 % 0.00 in
18:51 85.3 °F 68.4 °F 29.76 in SSW 1.0 mph 4.0 mph 57 % 0.00 in
18:56 84.9 °F 68.5 °F 29.76 in Calm   4.0 mph 58 % 0.00 in
19:01 84.6 °F 68.2 °F 29.76 in Calm   2.0 mph 58 % 0.00 in
19:06 84.4 °F 68.5 °F 29.76 in Calm   1.0 mph 59 % 0.00 in
19:11 84.0 °F 68.2 °F 29.76 in Calm   1.0 mph 59 % 0.00 in
19:16 83.7 °F 67.8 °F 29.76 in Calm     59 % 0.00 in
19:21 83.1 °F 67.8 °F 29.76 in Calm     60 % 0.00 in
19:26 82.8 °F 68.9 °F 29.76 in SSW 1.0 mph   63 % 0.00 in
19:31 82.6 °F 69.6 °F 29.76 in Calm   2.0 mph 65 % 0.00 in
19:36 82.2 °F 69.8 °F 29.76 in Calm   2.0 mph 66 % 0.00 in
19:41 81.9 °F 69.8 °F 29.76 in Calm   2.0 mph 67 % 0.00 in
19:46 81.3 °F 70.2 °F 29.77 in Calm   1.0 mph 69 % 0.00 in
19:51 81.0 °F 70.2 °F 29.77 in Calm   1.0 mph 70 % 0.00 in
19:57 80.4 °F 69.8 °F 29.76 in Calm   1.0 mph 70 % 0.00 in
20:02 80.2 °F 70.0 °F 29.77 in Calm   1.0 mph 71 % 0.00 in
20:07 79.9 °F 70.0 °F 29.77 in Calm   1.0 mph 72 % 0.00 in
20:12 79.5 °F 70.2 °F 29.77 in Calm   1.0 mph 73 % 0.00 in
20:17 79.2 °F 69.8 °F 29.77 in Calm   1.0 mph 73 % 0.00 in
20:22 79.0 °F 70.0 °F 29.77 in Calm   1.0 mph 74 % 0.00 in
20:27 78.8 °F 70.2 °F 29.77 in Calm   1.0 mph 75 % 0.00 in
20:32 78.6 °F 70.0 °F 29.78 in Calm   1.0 mph 75 % 0.00 in
20:37 78.3 °F 69.6 °F 29.78 in Calm   1.0 mph 75 % 0.00 in
20:42 78.1 °F 70.0 °F 29.78 in Calm   1.0 mph 76 % 0.00 in
20:47 77.9 °F 69.8 °F 29.78 in Calm   1.0 mph 76 % 0.00 in
20:52 77.7 °F 70.0 °F 29.78 in Calm   1.0 mph 77 % 0.00 in
20:57 77.5 °F 69.8 °F 29.78 in Calm   1.0 mph 77 % 0.00 in
21:02 77.7 °F 70.0 °F 29.79 in Calm   1.0 mph 77 % 0.00 in
21:07 77.5 °F 69.8 °F 29.79 in Calm   1.0 mph 77 % 0.00 in
21:12 77.5 °F 69.8 °F 29.79 in Calm   1.0 mph 77 % 0.00 in
21:17 77.5 °F 69.8 °F 29.79 in Calm   1.0 mph 77 % 0.00 in
21:22 77.4 °F 70.0 °F 29.79 in Calm   1.0 mph 78 % 0.00 in
21:27 77.2 °F 69.8 °F 29.80 in Calm   1.0 mph 78 % 0.00 in
21:32 77.0 °F 70.0 °F 29.80 in Calm   1.0 mph 79 % 0.00 in
21:37 76.6 °F 69.6 °F 29.80 in Calm   1.0 mph 79 % 0.00 in
21:42 76.6 °F 70.0 °F 29.80 in Calm   1.0 mph 80 % 0.00 in
21:47 76.6 °F 70.0 °F 29.80 in Calm   1.0 mph 80 % 0.00 in
21:52 76.6 °F 70.0 °F 29.81 in Calm   1.0 mph 80 % 0.00 in
21:57 76.5 °F 69.8 °F 29.81 in Calm   1.0 mph 80 % 0.00 in
22:02 76.1 °F 69.8 °F 29.81 in Calm   1.0 mph 81 % 0.00 in
22:07 75.7 °F 69.8 °F 29.81 in Calm   1.0 mph 82 % 0.00 in
22:12 75.4 °F 69.8 °F 29.81 in Calm   1.0 mph 83 % 0.00 in
22:20 74.8 °F 69.6 °F 29.81 in Calm   1.0 mph 84 % 0.00 in
22:21 74.7 °F 69.4 °F 29.81 in Calm   1.0 mph 84 % 0.00 in
22:22 74.7 °F 69.4 °F 29.81 in Calm   1.0 mph 84 % 0.00 in
22:25 74.5 °F 69.6 °F 29.81 in Calm   1.0 mph 85 % 0.00 in
22:27 74.5 °F 69.6 °F 29.81 in Calm   1.0 mph 85 % 0.00 in
22:37 74.7 °F 69.8 °F 29.81 in Calm   2.0 mph 85 % 0.00 in
22:42 74.8 °F 70.0 °F 29.81 in South 1.0 mph 2.0 mph 85 % 0.00 in
22:47 74.8 °F 70.0 °F 29.81 in South 1.0 mph 2.0 mph 85 % 0.00 in
22:52 75.0 °F 70.2 °F 29.81 in Calm   2.0 mph 85 % 0.00 in
22:57 75.2 °F 70.3 °F 29.81 in SSE 1.0 mph 2.0 mph 85 % 0.00 in
23:02 75.4 °F 70.5 °F 29.81 in SSE 2.0 mph 3.0 mph 85 % 0.00 in
23:07 75.4 °F 70.2 °F 29.81 in SSE 1.0 mph 3.0 mph 84 % 0.00 in
23:12 75.4 °F 70.5 °F 29.82 in South 2.0 mph 3.0 mph 85 % 0.00 in
23:17 75.6 °F 70.3 °F 29.82 in South 1.0 mph 3.0 mph 84 % 0.00 in
23:22 75.4 °F 70.2 °F 29.82 in SSE 2.0 mph 3.0 mph 84 % 0.00 in
23:27 75.4 °F 70.5 °F 29.82 in Calm   3.0 mph 85 % 0.00 in
23:32 75.2 °F 70.3 °F 29.82 in Calm   2.0 mph 85 % 0.00 in
23:37 75.0 °F 70.5 °F 29.82 in South 1.0 mph 2.0 mph 86 % 0.00 in
23:42 75.0 °F 70.5 °F 29.82 in Calm   2.0 mph 86 % 0.00 in
23:47 75.0 °F 70.5 °F 29.82 in SE 2.0 mph 4.0 mph 86 % 0.00 in
23:52 75.4 °F 70.9 °F 29.82 in SSE 3.0 mph 4.0 mph 86 % 0.00 in
23:57 75.6 °F 70.7 °F 29.82 in SSE 2.0 mph 6.0 mph 85 % 0.00 in
Spring, Texas: Villages of Bridgestone
Compliments of Weather Underground - 2.75 mb

Script developed by  Jim McMurry - jmcmurry@mwt.net Adapted for the template by  Wim van der Kuil - Leuven-Template.eu

You find our weather info also at:

UK Metoffice

WeatherCloud

Weather Underground

Mid-South Weather Network

AWEKAS

Citizen Weather Observer Program (CWOP)

HAMweather, WeatherForYou, PWS Weather

Equipment we use:

Weather-station
Davis Vantage Vue

Weather-program
Meteohub

Weather-server
Debian 7.9 x86 (Guest)

Provider
DreamHost

Davis Vantage Vue

Meteohub

Debian 7.9 x86 (Guest)

DreamHost